Location: Pine Bush
(41.6082°N, 74.2990°W)
Time: 03:33:00
(UTC+00:00)

Daily predictions for brighter satellites

Satellite Brightness Start Highest point End
(mag) Time Altitude Azimuth Time Altitude Azimuth Time Altitude Azimuth
Cosmos 1536 Rocket 4.2 00:01:31 10° N 00:05:38 35° ENE 00:08:22 18° SE
Cosmos 372 Rocket 4.0 00:01:50 10° SSW 00:07:04 87° ESE 00:12:20 10° NNE
Cosmos 2263 Rocket 3.8 00:03:45 10° SW 00:08:51 37° WNW 00:14:01 10° N
Cosmos 1464 Rocket 3.9 00:03:23 10° S 00:09:28 73° E 00:15:37 10° N
Cosmos 1844 4.1 00:04:53 10° S 00:10:09 40° ESE 00:15:24 10° NE
Cosmos 1025 Rocket 3.1 00:06:32 10° N 00:10:51 54° E 00:14:52 12° SSE
USA 186 2.3 00:11:48 32° ESE 00:12:28 37° ENE 00:15:30 10° N
BREEZE-M DEB (TANK) 3.3 00:09:52 10° SW 00:12:50 72° SE 00:21:41 10° NE
Cosmos 1844 Rocket 2.7 00:09:30 10° S 00:14:54 55° ESE 00:20:21 10° NNE
Cosmos 1867 3.6 00:10:52 10° NW 00:16:21 84° WSW 00:21:02 14° SSE
ISS -2.3 00:17:10 10° W 00:20:19 36° NNW 00:22:47 15° NE
Cosmos 2151 Rocket 3.5 00:17:50 10° S 00:22:14 69° E 00:26:43 10° NNE
USA 234 3.7 00:17:28 10° ENE 00:23:31 39° SE 00:29:33 10° SSW
Lacrosse 5 rocket 4.2 00:25:01 10° NNW 00:26:28 11° N 00:27:56 10° NNE
Cosmos 2150 Rocket 4.0 00:21:23 10° SSW 00:26:44 82° ESE 00:32:12 10° NNE
MetOp-A 4.4 00:26:18 26° SE 00:29:02 49° ENE 00:34:11 10° N
Cosmos 1125 Rocket 3.5 00:25:53 10° S 00:31:05 59° ESE 00:36:18 10° NNE
MOS 1 4.4 00:27:58 22° SE 00:31:36 58° ENE 00:37:12 10° N
CZ-2C R/B 2.2 00:29:28 10° WSW 00:32:29 25° S 00:32:43 25° S
DMSP B5D2-2 4.1 00:31:31 10° NNE 00:36:46 59° E 00:41:57 10° S
NOSS 3-2 (C) 4.3 00:31:02 10° NNW 00:38:25 53° NE 00:42:21 31° ESE
Exosat Rocket 3.5 00:33:20 10° S 00:39:05 62° ESE 00:44:01 10° NNE
Cosmos 1833 Rocket 4.4 00:36:25 10° N 00:39:46 16° NE 00:40:10 16° NE
NOSS 3-4 (A) 3.7 00:35:23 10° S 00:40:44 38° ESE 00:42:16 33° E
NOSS 3-4 (C) 3.7 00:35:31 10° S 00:40:51 38° ESE 00:41:56 35° E
Cosmos 468 4.5 00:45:00 10° NNW 00:50:22 86° WSW 00:52:48 33° SSE
Meteor 1-15 Rocket 4.1 00:48:21 10° S 00:53:58 90° E 00:59:43 10° N
Cosmos 1674 2.6 00:50:27 10° N 00:54:01 74° NNE 00:54:01 74° NNE
Cosmos 1805 3.9 00:57:53 45° NNE 00:57:53 45° NNE 01:00:43 10° N
Resurs 01 Rocket 2.8 00:59:15 29° NE 00:59:15 29° NE 01:02:01 10° N
Abrixas rocket 4.3 00:55:48 10° NW 00:57:14 19° NNW 00:57:14 19° NNW
H-2A R/B 3.7 00:54:15 10° SSW 00:58:37 31° W 01:03:05 10° NNW
Cosmos 1048 Rocket 4.2 00:55:42 10° NNW 01:01:01 74° WSW 01:03:09 37° S
Nadezhda 4 Rocket 4.2 00:56:23 10° NNW 01:02:28 69° W 01:07:55 13° S
ATLAS 2AS CENTAUR R/B 3.0 00:55:35 10° SSW 01:03:15 57° ESE 01:10:57 10° NE
BREEZE-M TANK 3.0 00:55:46 10° W 01:04:25 70° NNW 01:05:14 53° NE
CENTAUR R/B 3.2 01:03:03 10° NNW 01:11:15 74° NE 01:14:15 46° SE
Cosmos 1269 Rocket 4.4 01:10:50 10° N 01:15:25 51° NE 01:15:25 51° NE
Okean 1 Rocket 3.4 01:16:18 58° SW 01:16:53 66° W 01:21:22 10° N
ATLAS 3B R/B 3.6 01:13:12 10° NNW 01:19:18 33° NE 01:20:03 32° NE
Ariane Rocket 3.9 01:16:43 23° SSW 01:19:28 44° W 01:24:20 10° NNW
OBJECT-B 3.4 01:23:19 19° NNW 01:23:19 19° NNW 01:24:22 10° NNW
Cosmos 2082 Rocket 4.0 01:20:40 10° N 01:23:32 19° NE 01:23:32 19° NE
Cosmos 494 Rocket 4.1 01:21:15 10° NNW 01:26:29 67° WSW 01:26:49 65° SW
USA 238 DEB 4.1 01:19:42 10° NW 01:26:55 67° WSW 01:29:18 45° S
USA 238 4.0 01:19:48 10° NW 01:27:02 67° WSW 01:29:22 45° S
Meteor 2-5 Rocket 3.7 01:21:37 10° NNW 01:27:18 81° W 01:27:52 72° SSW
Resurs 1-3 4.4 01:32:05 49° NW 01:32:05 49° NW 01:35:29 10° NNW
Meteor 1-22 Rocket 4.2 01:32:16 78° SSW 01:32:40 87° W 01:38:44 10° N
CZ-2C R/B 4.0 01:28:41 10° N 01:33:48 39° WNW 01:38:57 10° SW
Cosmos 1634 Rocket 4.1 01:37:17 43° SSW 01:39:22 71° W 01:45:33 10° N
COSMOS 2406 3.9 01:33:58 10° NNW 01:38:12 44° NNE 01:38:12 44° NNE
SPOT 3 Rocket 4.0 01:44:55 57° WNW 01:44:55 57° WNW 01:49:33 10° NNW
Meteor 1-24 Rocket 3.9 01:39:32 10° NNW 01:44:32 69° NW 01:44:32 69° NW
ISS -0.1 01:55:42 10° NW 01:55:45 10° NW 01:55:45 10° NW
USA 234 3.5 02:04:41 44° NNE 02:06:42 63° NW 02:13:09 10° WSW
Lacrosse 5 rocket 4.3 02:05:03 10° NNW 02:06:10 13° N 02:06:10 13° N
Cosmos 1833 Rocket 4.1 02:18:50 10° NNW 02:21:52 33° NNW 02:21:52 33° NNW
Resurs 01 Rocket 4.5 02:36:49 15° NW 02:36:49 15° NW 02:37:56 10° NW
ATLAS 2AS CENTAUR R/B 4.1 02:47:09 10° WSW 02:54:34 41° NW 03:01:55 10° NNE
CENTAUR R/B 4.4 02:54:36 10° NW 03:01:27 30° WSW 03:01:27 30° WSW
Cosmos 2082 Rocket 4.5 03:03:44 10° NNW 03:05:22 20° NNW 03:05:22 20° NNW
ATLAS 3B R/B 4.1 03:03:35 10° NW 03:07:18 34° NW 03:07:18 34° NW
Cosmos 1697 Rocket 4.3 07:06:50 30° NE 07:06:50 30° NE 07:09:38 10° NNE
Cosmos 1980 Rocket 3.8 07:10:59 30° ENE 07:10:59 30° ENE 07:14:29 10° NE
ADEOS II 3.7 07:25:37 10° NNE 07:28:10 30° N 07:28:10 30° N
ARIANE 5 R/B 3.8 07:29:01 10° NNE 07:32:21 36° NE 07:32:21 36° NE
CZ-3B R/B 4.4 07:37:59 20° NNE 07:37:59 20° NNE 07:40:26 10° NE
IDEFIX/ARIANE 42P 3.6 07:34:47 10° NNE 07:39:15 42° E 07:39:15 42° E
Nadezhda 3 Rocket 4.3 07:41:12 58° NNE 07:41:12 58° NNE 07:46:03 10° N
SJ 16-02 3.8 07:47:33 10° N 07:50:55 21° ENE 07:54:18 10° ESE
Cosmos 1238 Rocket 4.4 07:50:42 10° N 07:57:11 59° ENE 08:00:20 28° SSE
H-2A R/B 4.2 07:55:57 10° ESE 07:59:35 26° ENE 08:03:17 10° N
Lacrosse 5 3.0 08:06:13 35° N 08:06:13 35° N 08:09:59 10° NE
CZ-2D R/B 4.3 08:03:09 10° NNW 08:04:03 13° NNW 08:04:03 13° NNW
Cosmos 2278 3.8 08:08:13 64° NNW 08:08:13 64° NNW 08:13:15 10° NNE
Resurs 1-4 Rocket 4.4 08:09:39 10° NNW 08:10:13 12° NNW 08:10:13 12° NNW
Cosmos 2369 4.5 08:17:21 39° NW 08:17:21 39° NW 08:21:53 10° N
X-37B 3.3 08:18:53 20° ENE 08:18:53 20° ENE 08:20:06 10° ENE
NOSS 3-3 (A) 3.7 08:19:03 67° S 08:19:50 80° ESE 08:26:13 10° NE
NOSS 3-3 (C) 3.7 08:19:13 67° S 08:19:58 79° ESE 08:26:17 10° NE
USA 267 3.5 08:14:48 10° NE 08:21:11 56° NNW 08:22:28 49° WNW
Cosmos 1339 Rocket 4.4 08:29:39 35° S 08:32:30 90° E 08:38:45 10° N
Spot 4 Rocket 3.9 08:29:49 10° N 08:34:55 65° WNW 08:35:06 64° W
SL-8 R/B 3.8 08:39:54 50° NW 08:41:04 73° NNE 08:45:49 10° ESE
ADEOS Rocket 4.1 08:35:54 10° SE 08:42:23 47° ENE 08:48:15 10° N
Cosmos 921 Rocket 2.9 08:43:18 66° NW 08:43:18 66° NW 08:47:08 10° NNE
Cosmos 2360 Rocket 4.2 08:38:48 10° SSE 08:43:23 26° ESE 08:47:59 10° NE
Cosmos 1898 Rocket 4.4 08:39:15 10° N 08:44:21 49° ENE 08:49:27 10° SE
MSX 3.7 08:39:07 10° N 08:44:53 73° WNW 08:47:06 39° SSW
CZ-4C R/B 3.4 08:47:18 54° N 08:47:18 54° N 08:50:09 10° NNW
Cosmos 1812 2.6 08:46:42 83° NNW 08:46:42 83° NNW 08:50:27 10° N
Timation 1 Rocket 4.4 08:41:48 10° NW 08:47:33 49° WSW 08:53:17 10° S
Cosmos 1500 3.4 08:44:22 10° N 08:47:33 59° NNW 08:47:33 59° NNW
IRIDIUM 104 4.4 08:43:04 10° N 08:48:19 76° E 08:53:32 10° S
Cosmos 1697 Rocket 4.1 08:48:35 21° NW 08:48:35 21° NW 08:52:45 10° N
Cosmos 1707 Rocket 4.2 08:49:21 12° S 08:53:16 55° E 08:57:30 10° NNE
Cosmos 1980 Rocket 2.9 08:52:46 34° WNW 08:53:19 34° WNW 08:58:29 10° N
Cosmos 1666 3.6 08:50:04 10° N 08:53:47 49° E 08:57:27 10° SSE
USA 234 3.2 08:48:24 10° SE 08:54:56 89° SW 09:01:31 10° NW
IRIDIUM 114 4.2 08:52:13 10° N 08:57:28 89° W 09:02:41 10° S
BREEZE-M DEB (TANK) 3.2 08:55:57 30° SW 08:59:56 77° SSE 09:03:21 10° ENE
Cosmos 2322 Rocket 2.5 08:55:32 16° S 09:00:02 68° ESE 09:05:43 10° NNE
BREEZE-M DEB (TANK) 3.3 09:01:04 39° NW 09:01:38 43° NNW 09:07:25 10° ENE
Cosmos 2263 Rocket 2.1 08:56:10 10° NNW 09:01:50 76° WSW 09:07:29 10° SSE
USA 32 4.3 08:57:58 10° N 09:03:14 69° E 09:08:27 10° SSE
IRIDIUM 103 4.2 09:01:23 10° N 09:06:36 73° W 09:11:47 10° S
SL-16 R/B 2.1 09:05:31 22° SSW 09:09:19 83° WNW 09:15:02 10° NNE
Cosmos 2228 Rocket 3.8 09:09:42 33° WNW 09:09:42 33° WNW 09:13:41 10° N
ADEOS II 4.1 09:07:59 10° NW 09:09:07 11° NW 09:09:07 11° NW
Cosmos 1937 Rocket 4.1 09:04:50 10° NNW 09:09:56 58° ENE 09:14:58 10° SSE
SL-4 R/B 2.3 09:08:18 35° SW 09:10:11 78° SE 09:14:58 10° ENE
FALCON 9 DEB 3.0 09:10:01 55° SW 09:10:41 83° SE 09:14:07 10° NE
Cosmos 1733 Rocket 4.2 09:08:21 10° N 09:12:33 45° ENE 09:16:41 10° SSE
ARIANE 5 R/B 3.9 09:09:00 10° NNW 09:12:41 21° WNW 09:12:41 21° WNW
ADEOS 4.2 09:09:41 10° NNE 09:14:51 57° ESE 09:19:57 10° S
USA 276 4.5 09:13:50 14° NNW 09:15:21 18° N 09:17:42 10° NE
Meteor 1-4 Rocket 2.7 09:16:31 43° W 09:16:52 45° WNW 09:20:15 10° N
Cosmos 841 Rocket 4.1 09:11:55 10° S 09:17:01 59° ESE 09:22:11 10° NNE
Cosmos 44 Rocket 4.0 09:12:58 10° S 09:17:29 50° ESE 09:22:09 10° NE
Gbstr 26 Del rocket 4.4 09:09:53 10° NW 09:18:00 86° NE 09:25:06 10° SE
Cosmos 2173 Rocket 4.4 09:11:54 10° N 09:18:12 67° E 09:24:32 10° SSE
IDEFIX/ARIANE 42P 3.7 09:14:55 10° NNW 09:19:07 25° WNW 09:20:03 23° W
CZ-2C R/B 2.5 09:14:12 10° N 09:19:19 71° WNW 09:24:29 10° SSW
Cosmos 1869 Rocket 3.8 09:15:32 10° NNW 09:19:39 43° W 09:23:44 10° SSW
Cosmos 2227 4.3 09:15:30 10° NW 09:20:55 49° WSW 09:26:17 10° S
Meteor 1-10 Rocket 4.5 09:17:09 17° SSW 09:21:27 51° WNW 09:27:10 10° N
CZ-2C R/B 4.0 09:18:55 10° NNW 09:21:45 24° WNW 09:21:45 24° WNW
ERBS 3.5 09:22:46 26° NW 09:23:22 27° NW 09:26:19 10° NNE
IRIDIUM 106 4.5 09:19:51 10° NNW 09:24:52 49° W 09:29:52 10° SSW
Cosmos 1763 Rocket 3.6 09:21:34 18° SW 09:25:32 60° WNW 09:30:49 10° NNE
Cosmos 1862 Rocket 4.0 09:23:07 10° S 09:27:26 63° E 09:31:46 10° NNE
SJ-6F 4.4 09:24:46 10° NNE 09:28:53 87° ESE 09:32:58 10° SSW
SJ 16-02 1.8 09:25:35 10° NW 09:29:35 35° W 09:33:35 10° SSW
PSLV R/B 3.9 09:27:46 10° N 09:31:45 43° WNW 09:34:43 16° SW
Cosmos 1743 4.3 09:29:26 10° N 09:33:01 38° ENE 09:36:34 10° SSE
Cosmos 967 Rocket 4.5 09:27:03 12° SW 09:33:04 78° WNW 09:39:31 10° NNE
CZ-4B R/B 1.2 09:31:39 10° SSE 09:34:47 90° SE 09:38:01 10° NNW
H-2A R/B 2.9 09:31:38 10° SSW 09:35:25 29° W 09:39:19 10° NW
DEBRIS 2.9 09:34:58 23° WNW 09:36:31 58° SSW 09:42:43 10° SE
Cosmos 1570 Rocket 4.0 09:33:59 10° SSW 09:39:17 89° WNW 09:44:40 10° NNE
PKM 4.2 09:37:24 10° NW 09:41:02 66° NE 09:45:09 10° SE
Cosmos 1689 Rocket 3.6 09:41:38 10° SE 09:44:25 40° ENE 09:47:15 10° N
ERS-2 2.9 09:45:09 10° SSW 09:48:24 30° W 09:51:39 10° NW
Cosmos 2016 Rocket 4.2 09:42:49 10° N 09:48:58 77° E 09:55:03 10° SSE
Lacrosse 5 4.0 09:46:23 10° NW 09:49:27 16° NNW 09:52:32 10° NNE
Cosmos 2333 Rocket 3.9 09:44:42 10° S 09:49:55 36° ESE 09:55:09 10° NE
Cosmos 990 Rocket 4.4 09:45:36 10° NW 09:50:23 38° WSW 09:55:11 10° S
Cosmos 1000 Rocket 4.4 09:44:42 10° SSW 09:50:51 68° W 09:57:00 10° N
Okean 1 4.0 09:47:49 10° S 09:51:49 60° E 09:55:49 10° NNE
Cosmos 540 Rocket 3.4 09:47:06 10° SSW 09:52:14 68° WNW 09:57:25 10° NNE
Meteor 2-20 4.4 09:46:37 10° S 09:52:46 84° W 09:58:54 10° N
CZ-4B R/B 3.7 09:49:36 10° NNE 09:53:09 48° E 09:56:37 10° S
X-37B 0.5 09:51:10 14° WNW 09:53:50 84° SSW 09:57:01 10° ESE
CZ-4B R/B 4.1 09:50:36 10° NNE 09:54:59 85° W 09:59:26 10° SSW
Cosmos 2322 4.5 09:52:47 10° S 09:58:17 56° ESE 10:03:49 10° NNE
ALOS 2.2 09:54:31 10° N 09:59:12 70° WNW 10:03:48 10° SSW
Cosmos 1484 Rocket 2.9 09:55:25 10° N 09:59:21 59° WNW 10:03:17 10° SSW
COSMO-SKYMED 1 3.1 09:57:58 10° SSE 10:02:15 66° ENE 10:06:34 10° N
NOSS 3-4 (A) 3.9 09:56:50 10° NW 10:03:59 84° WSW 10:11:52 10° SSE
NOSS 3-4 (C) 3.9 09:56:56 10° NW 10:04:05 85° WSW 10:11:59 10° SSE
Cosmos 1536 3.7 10:03:16 10° NNW 10:06:49 29° W 10:10:20 10° SSW
Cosmos 1725 Rocket 4.0 10:02:35 10° N 10:08:49 90° NE 10:15:00 10° S
Meteor 1-31 Rocket 2.9 10:07:09 10° N 10:10:53 52° WNW 10:14:37 10° SSW
Cosmos 1437 Rocket 2.7 10:09:59 10° SSW 10:13:43 61° W 10:17:31 10° N
Cosmos 2100 Rocket 4.4 10:09:13 10° NNW 10:15:09 42° W 10:21:03 10° SSW
Cosmos 1544 3.0 10:12:13 10° N 10:15:50 90° SSW 10:19:24 10° S
Cosmos 2333 4.5 10:10:19 10° SSW 10:16:05 80° ESE 10:21:53 10° NNE
PSLV R/B 3.9 10:13:02 10° S 10:17:05 80° WSW 10:21:11 10° NNW
USA 281 4.5 10:12:29 10° NE 10:18:46 46° ESE 10:25:00 10° S
deb Chang Zheng 4 4.4 10:15:48 10° N 10:19:32 30° WNW 10:23:15 10° SW
Cosmos 1802 Rocket 4.2 10:14:35 10° NNW 10:20:33 51° W 10:26:34 10° SSW
